Location: Newark
(44.9333°N, 0.5667°E)
Time: 11:23:02
(UTC+00:00)

Oscar 11 - Visible Passes

Search period start: 27 February 2020 00:00
Search period end: 08 March 2020 00:00
Orbit: 614 x 625 km, 97.6° (Epoch: 25 February)

Date Brightness Start Highest point End Pass type
(mag) Time Alt. Az. Time Alt. Az. Time Alt. Az.
27 Feb 9.6 18:53:24 10° SSW 18:57:00 25° W 19:00:38 10° NW visible
28 Feb 10.2 19:11:21 10° SW 19:14:14 17° W 19:17:07 10° NW visible
29 Feb 10.6 19:30:07 10° WSW 19:31:30 11° W 19:32:54 10° WNW visible
01 Mar 10.8 05:37:40 10° ENE 05:39:20 12° E 05:41:00 10° ESE visible
02 Mar 10.4 05:53:37 10° NE 05:56:36 18° E 05:59:34 10° SE visible
02 Mar 8.3 18:24:51 10° S 18:29:03 48° W 18:33:17 10° NNW visible
03 Mar 9.2 18:42:19 10° SSW 18:46:12 32° W 18:50:07 10° NNW visible
04 Mar 9.9 19:00:03 10° SW 19:03:24 21° W 19:06:46 10° NW visible
05 Mar 10.4 19:18:15 10° WSW 19:20:39 14° W 19:23:04 10° NW visible
07 Mar 10.6 05:43:25 10° ENE 05:45:45 14° E 05:48:04 10° ESE visible
